Volver al catálogo

COSMOS 371

ActivoMilitarLEO
NORAD 4578·PAYLOAD·🇷🇺 Russia

Lanzado Oct 12, 1970 desde Plesetsk Cosmodrome

Loading…

Próximos Pases (próximas 24 horas)

TLE

ActualizadoSource: Space-Track

Época: Sep 14, 2026, 14:24 UTC

1 04578U 70083A   26257.60012580  .00000180  00000-0  47651-4 0  9992
2 04578  74.0002   3.8158 0003123 309.2386  50.8500 14.55863284958606

Sigue COSMOS 371 en tiempo real con AllMySat

Download on the App Store